TimeICT,TemperatureF,Dew PointF,Humidity,Sea Level PressureIn,VisibilityMPH,Wind Direction,Wind SpeedMPH,Gust SpeedMPH,PrecipitationIn,Events,Conditions,WindDirDegrees,DateUTC
12:00 AM,80.6,73.4,79,29.92,3.7,SW,3.5,-,N/A,,Unknown,220,2013-01-23 17:00:00
12:30 AM,80.6,73.4,79,29.92,3.7,SW,3.5,-,N/A,,Unknown,230,2013-01-23 17:30:00
1:00 AM,81,74,73,29.93,3,WSW,4.6,,,,Mist,240,2013-01-23 18:00:00
1:00 AM,80.6,73.4,79,29.92,3.1,WSW,4.6,-,N/A,,Mist,240,2013-01-23 18:00:00
1:30 AM,80.6,73.4,79,29.92,3.1,SW,4.6,-,N/A,,Mist,230,2013-01-23 18:30:00
2:00 AM,80.6,75.2,84,29.92,3.1,SW,6.9,-,N/A,,Mist,230,2013-01-23 19:00:00
2:30 AM,80.6,75.2,84,29.89,3.1,SW,8.1,-,N/A,,Mist,230,2013-01-23 19:30:00
3:00 AM,80.6,75.2,84,29.89,3.1,SW,6.9,-,N/A,,Mist,230,2013-01-23 20:00:00
3:30 AM,78.8,73.4,83,29.89,3.1,SSW,4.6,-,N/A,,Mist,210,2013-01-23 20:30:00
4:00 AM,78.8,73.4,83,29.89,3.1,SSW,3.5,-,N/A,,Mist,210,2013-01-23 21:00:00
4:30 AM,78.8,73.4,83,29.89,3.1,SSW,4.6,-,N/A,,Mist,210,2013-01-23 21:30:00
5:00 AM,78.8,73.4,83,29.89,3.1,SSW,2.3,-,N/A,,Mist,210,2013-01-23 22:00:00
5:30 AM,78.8,73.4,83,29.89,3.1,Calm,Calm,-,N/A,,Mist,0,2013-01-23 22:30:00
6:00 AM,78.8,73.4,83,29.89,3.1,Calm,Calm,-,N/A,,Mist,0,2013-01-23 23:00:00
6:30 AM,78.8,73.4,83,29.92,2.5,East,3.5,-,N/A,,Mostly Cloudy,90,2013-01-23 23:30:00
7:00 AM,78,73,81,29.93,2,ENE,4.6,,,,Mist,60,2013-01-24 00:00:00
7:00 AM,78.8,73.4,83,29.92,2.5,ENE,4.6,-,N/A,,Mostly Cloudy,60,2013-01-24 00:00:00
7:30 AM,78.8,73.4,83,29.92,2.5,ENE,4.6,-,N/A,,Mostly Cloudy,60,2013-01-24 00:30:00
8:00 AM,80.6,75.2,84,29.92,1.9,ENE,3.5,-,N/A,,Mostly Cloudy,60,2013-01-24 01:00:00
8:30 AM,80.6,77.0,89,29.95,0.9,East,4.6,-,N/A,,Mostly Cloudy,80,2013-01-24 01:30:00
9:00 AM,80.6,77.0,89,29.95,0.9,ENE,5.8,-,N/A,,Mostly Cloudy,70,2013-01-24 02:00:00
9:30 AM,82.4,77.0,84,29.95,1.2,East,3.5,-,N/A,,Mostly Cloudy,100,2013-01-24 02:30:00
10:00 AM,84.2,77.0,79,29.95,1.9,ESE,4.6,-,N/A,,Mostly Cloudy,110,2013-01-24 03:00:00
10:30 AM,87.8,78.8,75,29.92,3.1,South,4.6,-,N/A,,Mostly Cloudy,170,2013-01-24 03:30:00
11:00 AM,89.6,78.8,70,29.92,3.7,South,4.6,-,N/A,,Mostly Cloudy,190,2013-01-24 04:00:00
11:30 AM,89.6,77.0,66,29.92,3.7,SSE,3.5,-,N/A,,Mostly Cloudy,160,2013-01-24 04:30:00
12:00 PM,91.4,75.2,59,29.89,4.3,SSE,3.5,-,N/A,,Mostly Cloudy,150,2013-01-24 05:00:00
12:30 PM,91.4,73.4,55,29.89,4.3,South,4.6,-,N/A,,Mostly Cloudy,170,2013-01-24 05:30:00
1:00 PM,93,75,47,29.88,4,South,3.5,,,,Haze,180,2013-01-24 06:00:00
1:00 PM,93.2,75.2,56,29.86,4.3,South,3.5,-,N/A,,Mostly Cloudy,180,2013-01-24 06:00:00
1:30 PM,93.2,75.2,56,29.86,4.3,South,3.5,-,N/A,,Mostly Cloudy,190,2013-01-24 06:30:00
2:00 PM,93.2,75.2,56,29.83,4.3,SSW,5.8,-,N/A,,Mostly Cloudy,210,2013-01-24 07:00:00
2:30 PM,91.4,73.4,55,29.80,5.0,South,5.8,-,N/A,,Mostly Cloudy,180,2013-01-24 07:30:00
3:00 PM,91.4,75.2,59,29.80,4.3,SW,11.5,-,N/A,Rain,Light Rain,230,2013-01-24 08:00:00
3:30 PM,89.6,75.2,62,29.80,5.0,ESE,9.2,-,N/A,,Mostly Cloudy,120,2013-01-24 08:30:00
4:00 PM,89.6,77.0,66,29.80,4.3,ESE,9.2,-,N/A,Rain-Thunderstorm,Light Thunderstorms and Rain,120,2013-01-24 09:00:00
4:30 PM,84.2,75.2,74,29.83,3.1,SSW,11.5,-,N/A,Rain-Thunderstorm,Light Thunderstorms and Rain,200,2013-01-24 09:30:00
5:00 PM,84.2,73.4,70,29.80,4.3,WNW,9.2,-,N/A,Rain,Light Rain,300,2013-01-24 10:00:00
5:30 PM,84.2,73.4,70,29.80,5.0,East,4.6,-,N/A,,Mostly Cloudy,80,2013-01-24 10:30:00
6:00 PM,84.2,73.4,70,29.80,5.0,West,3.5,-,N/A,,Mostly Cloudy,280,2013-01-24 11:00:00
6:30 PM,84.2,73.4,70,29.83,5.0,South,3.5,-,N/A,,Mostly Cloudy,180,2013-01-24 11:30:00
7:00 PM,85,76,68,29.85,5,South,3.5,,,,Mist,180,2013-01-24 12:00:00
7:00 PM,84.2,75.2,74,29.83,5.0,South,3.5,-,N/A,,Mostly Cloudy,180,2013-01-24 12:00:00
7:30 PM,84.2,75.2,74,29.83,5.0,SSW,6.9,-,N/A,,Mostly Cloudy,200,2013-01-24 12:30:00
8:00 PM,84.2,75.2,74,29.86,5.6,SSW,5.8,-,N/A,,Mostly Cloudy,210,2013-01-24 13:00:00
8:30 PM,84.2,75.2,74,29.86,5.6,SW,3.5,-,N/A,,Mostly Cloudy,220,2013-01-24 13:30:00
9:00 PM,82.4,75.2,79,29.86,5.6,SW,4.6,-,N/A,,Mostly Cloudy,230,2013-01-24 14:00:00
9:30 PM,82.4,75.2,79,29.86,5.6,SW,5.8,-,N/A,,Mostly Cloudy,220,2013-01-24 14:30:00
10:00 PM,82.4,75.2,79,29.89,5.6,South,5.8,-,N/A,,Mostly Cloudy,190,2013-01-24 15:00:00
10:30 PM,82.4,75.2,79,29.89,5.6,South,4.6,-,N/A,,Mostly Cloudy,190,2013-01-24 15:30:00
11:00 PM,82.4,75.2,79,29.89,5.6,SSW,3.5,-,N/A,,Mostly Cloudy,200,2013-01-24 16:00:00
11:30 PM,82.4,75.2,79,29.86,5.6,SW,8.1,-,N/A,,Mostly Cloudy,220,2013-01-24 16:30:00